This is the latest recevied weather packets stored in our database for station/object K7LDN-13. If no packets are shown the sender has not sent any weather packets the latest 10 day(s).
| Time | Temp. | Humidity | Pressure | Rain* | Wind** | Luminosity | Snow |
|---|---|---|---|---|---|---|---|
| 1777730070 | 11.67° C | 55% | 1023.7 hPa | 0 mm | - | 163 W/m² | - |
| 1777729766 | 11.11° C | 56% | 1023.7 hPa | 0 mm | - | 153 W/m² | - |
| 1777729463 | 11.11° C | 55% | 1023.7 hPa | 0 mm | - | 138 W/m² | - |
| 1777729160 | 11.11° C | 53% | 1023.7 hPa | 0 mm | - | 125 W/m² | - |
| 1777728856 | 11.11° C | 51% | 1023.7 hPa | 0 mm | - | 117 W/m² | - |
| 1777728554 | 11.11° C | 51% | 1023.6 hPa | 0 mm | - | 107 W/m² | - |
| 1777728251 | 10.56° C | 49% | 1023.7 hPa | 0 mm | - | 96 W/m² | - |
| 1777727948 | 10.56° C | 49% | 1023.6 hPa | 0 mm | - | 84 W/m² | - |
| 1777727644 | 10.56° C | 48% | 1023.5 hPa | 0 mm | - | 75 W/m² | - |
| 1777727342 | 10.56° C | 47% | 1023.7 hPa | 0 mm | - | 63 W/m² | - |
| 1777727039 | 10° C | 48% | 1023.6 hPa | 0 mm | - | 52 W/m² | - |
| 1777726736 | 10° C | 50% | 1023.5 hPa | 0 mm | - | 41 W/m² | - |
| 1777726433 | 9.44° C | 53% | 1023.6 hPa | 0 mm | - | 33 W/m² | - |
| 1777726130 | 8.89° C | 57% | 1023.5 hPa | 0 mm | - | 21 W/m² | - |
| 1777725827 | 8.89° C | 58% | 1023.4 hPa | 0 mm | - | 16 W/m² | - |
| 1777725524 | 8.89° C | 58% | 1023.4 hPa | 0 mm | - | 12 W/m² | - |
| 1777725222 | 8.89° C | 58% | 1023.5 hPa | 0 mm | - | 9 W/m² | - |
| 1777724919 | 8.89° C | 58% | 1023.5 hPa | 0 mm | - | 6 W/m² | - |
| 1777724614 | 9.44° C | 57% | 1023.5 hPa | 0 mm | - | 3 W/m² | - |
| 1777724313 | 9.44° C | 56% | 1023.5 hPa | 0 mm | - | 2 W/m² | - |
| 1777724010 | 9.44° C | 57% | 1023.4 hPa | 0 mm | - | 1 W/m² | - |
| 1777723707 | 9.44° C | 57% | 1023.5 hPa | 0 mm | - | 0 W/m² | - |
| 1777723403 | 9.44° C | 57% | 1023.4 hPa | 0 mm | - | 0 W/m² | - |
| 1777723101 | 9.44° C | 58% | 1023.3 hPa | 0 mm | - | 0 W/m² | - |
| 1777722798 | 9.44° C | 59% | 1023.4 hPa | 0 mm | - | 0 W/m² | - |
* Rain latest hour (hover to see other rain measurements)
** Current wind speed in m/s (hover to see current wind gust speed)